Year,Month,Day,Hour,Minute,Value (Times are PST for temperature in C)
2015,06,23,00,00,18.20
2015,06,23,00,01,18.20
2015,06,23,00,02,18.20
2015,06,23,00,03,18.20
2015,06,23,00,04,18.20
2015,06,23,00,05,18.20
2015,06,23,00,06,18.20
2015,06,23,00,07,18.20
2015,06,23,00,08,18.20
2015,06,23,00,09,18.20
2015,06,23,00,10,18.20
2015,06,23,00,11,18.20
2015,06,23,00,12,18.20
2015,06,23,00,13,18.20
2015,06,23,00,14,18.20
2015,06,23,00,15,18.20
2015,06,23,00,16,18.20
2015,06,23,00,17,18.10
2015,06,23,00,18,18.10
2015,06,23,00,19,18.10
2015,06,23,00,20,18.10
2015,06,23,00,21,18.00
2015,06,23,00,22,18.00
2015,06,23,00,23,18.00
2015,06,23,00,24,18.00
2015,06,23,00,25,17.90
2015,06,23,00,26,17.90
2015,06,23,00,27,17.90
2015,06,23,00,28,17.90
2015,06,23,00,29,17.90
2015,06,23,00,30,17.90
2015,06,23,00,31,17.80
2015,06,23,00,32,17.90
2015,06,23,00,33,17.90
2015,06,23,00,34,18.00
2015,06,23,00,35,18.00
2015,06,23,00,36,18.10
2015,06,23,00,37,18.10
2015,06,23,00,38,18.20
2015,06,23,00,39,18.20
2015,06,23,00,40,18.20
2015,06,23,00,41,18.20
2015,06,23,00,42,18.20
2015,06,23,00,43,18.10
2015,06,23,00,44,18.10
2015,06,23,00,45,18.00
2015,06,23,00,46,18.00
2015,06,23,00,47,18.00
2015,06,23,00,48,17.90
2015,06,23,00,49,17.90
2015,06,23,00,50,17.90
2015,06,23,00,51,17.90
2015,06,23,00,52,17.80
2015,06,23,00,53,17.80
2015,06,23,00,54,17.80
2015,06,23,00,55,17.80
2015,06,23,00,56,17.80
2015,06,23,00,57,17.80
2015,06,23,00,58,17.70
2015,06,23,00,59,17.80
2015,06,23,01,00,17.80
2015,06,23,01,01,17.80
2015,06,23,01,02,17.80
2015,06,23,01,03,17.80
2015,06,23,01,04,17.80
2015,06,23,01,05,17.80
2015,06,23,01,06,17.80
2015,06,23,01,07,17.80
2015,06,23,01,08,17.80
2015,06,23,01,09,17.80
2015,06,23,01,10,17.80
2015,06,23,01,11,17.70
2015,06,23,01,12,17.70
2015,06,23,01,13,17.70
2015,06,23,01,14,17.70
2015,06,23,01,15,17.70
2015,06,23,01,16,17.70
2015,06,23,01,17,17.60
2015,06,23,01,18,17.60
2015,06,23,01,19,17.60
2015,06,23,01,20,17.60
2015,06,23,01,21,17.60
2015,06,23,01,22,17.60
2015,06,23,01,23,17.60
2015,06,23,01,24,17.50
2015,06,23,01,25,17.50
2015,06,23,01,26,17.40
2015,06,23,01,27,17.40
2015,06,23,01,28,17.40
2015,06,23,01,29,17.40
2015,06,23,01,30,17.40
2015,06,23,01,31,17.30
2015,06,23,01,32,17.30
2015,06,23,01,33,17.30
2015,06,23,01,34,17.30
2015,06,23,01,35,17.30
2015,06,23,01,36,17.30
2015,06,23,01,37,17.30
2015,06,23,01,38,17.30
2015,06,23,01,39,17.20
2015,06,23,01,40,17.20
2015,06,23,01,41,17.20
2015,06,23,01,42,17.20
2015,06,23,01,43,17.20
2015,06,23,01,44,17.20
2015,06,23,01,45,17.20
2015,06,23,01,46,17.20
2015,06,23,01,47,17.20
2015,06,23,01,48,17.10
2015,06,23,01,49,17.10
2015,06,23,01,50,17.10
2015,06,23,01,51,17.10
2015,06,23,01,52,17.10
2015,06,23,01,53,17.10
2015,06,23,01,54,17.10
2015,06,23,01,55,17.10
2015,06,23,01,56,17.10
2015,06,23,01,57,17.10
2015,06,23,01,58,17.00
2015,06,23,01,59,17.00
2015,06,23,02,00,17.00
2015,06,23,02,01,17.00
2015,06,23,02,02,16.90
2015,06,23,02,03,16.90
2015,06,23,02,04,16.90
2015,06,23,02,05,16.90
2015,06,23,02,06,16.80
2015,06,23,02,07,16.80
2015,06,23,02,08,16.80
2015,06,23,02,09,16.80
2015,06,23,02,10,16.80
2015,06,23,02,11,16.80
2015,06,23,02,12,16.70
2015,06,23,02,13,16.70
2015,06,23,02,14,16.70
2015,06,23,02,15,16.70
2015,06,23,02,16,16.60
2015,06,23,02,17,16.60
2015,06,23,02,18,16.60
2015,06,23,02,19,16.50
2015,06,23,02,20,16.50
2015,06,23,02,21,16.50
2015,06,23,02,22,16.40
2015,06,23,02,23,16.40
2015,06,23,02,24,16.40
2015,06,23,02,25,16.30
2015,06,23,02,26,16.30
2015,06,23,02,27,16.30
2015,06,23,02,28,16.30
2015,06,23,02,29,16.30
2015,06,23,02,30,16.30
2015,06,23,02,31,16.30
2015,06,23,02,32,16.20
2015,06,23,02,33,16.20
2015,06,23,02,34,16.20
2015,06,23,02,35,16.20
2015,06,23,02,36,16.20
2015,06,23,02,37,16.20
2015,06,23,02,38,16.20
2015,06,23,02,39,16.20
2015,06,23,02,40,16.10
2015,06,23,02,41,16.10
2015,06,23,02,42,16.10
2015,06,23,02,43,16.10
2015,06,23,02,44,16.00
2015,06,23,02,45,16.00
2015,06,23,02,46,15.90
2015,06,23,02,47,15.90
2015,06,23,02,48,15.90
2015,06,23,02,49,15.80
2015,06,23,02,50,15.80
2015,06,23,02,51,15.80
2015,06,23,02,52,15.70
2015,06,23,02,53,15.70
2015,06,23,02,54,15.70
2015,06,23,02,55,15.70
2015,06,23,02,56,15.60
2015,06,23,02,57,15.60
2015,06,23,02,58,15.60
2015,06,23,02,59,15.60
2015,06,23,03,00,15.60
2015,06,23,03,01,15.60
2015,06,23,03,02,15.60
2015,06,23,03,03,15.50
2015,06,23,03,04,15.50
2015,06,23,03,05,15.50
2015,06,23,03,06,15.50
2015,06,23,03,07,15.40
2015,06,23,03,08,15.40
2015,06,23,03,09,15.40
2015,06,23,03,10,15.40
2015,06,23,03,11,15.40
2015,06,23,03,12,15.40
2015,06,23,03,13,15.40
2015,06,23,03,14,15.40
2015,06,23,03,15,15.40
2015,06,23,03,16,15.40
2015,06,23,03,17,15.40
2015,06,23,03,18,15.50
2015,06,23,03,19,15.50
2015,06,23,03,20,15.50
2015,06,23,03,21,15.60
2015,06,23,03,22,15.60
2015,06,23,03,23,15.60
2015,06,23,03,24,15.60
2015,06,23,03,25,15.60
2015,06,23,03,26,15.60
2015,06,23,03,27,15.60
2015,06,23,03,28,15.60
2015,06,23,03,29,15.60
2015,06,23,03,30,15.60
2015,06,23,03,31,15.60
2015,06,23,03,32,15.60
2015,06,23,03,33,15.50
2015,06,23,03,34,15.50
2015,06,23,03,35,15.60
2015,06,23,03,36,15.60
2015,06,23,03,37,15.60
2015,06,23,03,38,15.60
2015,06,23,03,39,15.60
2015,06,23,03,40,15.60
2015,06,23,03,41,15.60
2015,06,23,03,42,15.60
2015,06,23,03,43,15.60
2015,06,23,03,44,15.50
2015,06,23,03,45,15.50
2015,06,23,03,46,15.50
2015,06,23,03,47,15.50
2015,06,23,03,48,15.50
2015,06,23,03,49,15.40
2015,06,23,03,50,15.40
2015,06,23,03,51,15.40
2015,06,23,03,52,15.40
2015,06,23,03,53,15.40
2015,06,23,03,54,15.40
2015,06,23,03,55,15.40
2015,06,23,03,56,15.40
2015,06,23,03,57,15.40
2015,06,23,03,58,15.30
2015,06,23,03,59,15.30
2015,06,23,04,00,15.30
2015,06,23,04,01,15.30
2015,06,23,04,02,15.30
2015,06,23,04,03,15.30
2015,06,23,04,04,15.30
2015,06,23,04,05,15.20
2015,06,23,04,06,15.20
2015,06,23,04,07,15.20
2015,06,23,04,08,15.20
2015,06,23,04,09,15.20
2015,06,23,04,10,15.20
2015,06,23,04,11,15.20
2015,06,23,04,12,15.10
2015,06,23,04,13,15.10
2015,06,23,04,14,15.10
2015,06,23,04,15,15.10
2015,06,23,04,16,15.10
2015,06,23,04,17,15.10
2015,06,23,04,18,15.00
2015,06,23,04,19,15.00
2015,06,23,04,20,15.00
2015,06,23,04,21,14.90
2015,06,23,04,22,14.90
2015,06,23,04,23,14.90
2015,06,23,04,24,14.90
2015,06,23,04,25,14.90
2015,06,23,04,26,14.90
2015,06,23,04,27,14.80
2015,06,23,04,28,14.80
2015,06,23,04,29,14.80
2015,06,23,04,30,14.80
2015,06,23,04,31,14.80
2015,06,23,04,32,14.80
2015,06,23,04,33,14.80
2015,06,23,04,34,14.70
2015,06,23,04,35,14.70
2015,06,23,04,36,14.70
2015,06,23,04,37,14.70
2015,06,23,04,38,14.70
2015,06,23,04,39,14.70
2015,06,23,04,40,14.70
2015,06,23,04,41,14.70
2015,06,23,04,42,14.60
2015,06,23,04,43,14.60
2015,06,23,04,44,14.60
2015,06,23,04,45,14.60
2015,06,23,04,46,14.60
2015,06,23,04,47,14.50
2015,06,23,04,48,14.50
2015,06,23,04,49,14.50
2015,06,23,04,50,14.50
2015,06,23,04,51,14.40
2015,06,23,04,52,14.40
2015,06,23,04,53,14.40
2015,06,23,04,54,14.40
2015,06,23,04,55,14.30
2015,06,23,04,56,14.30
2015,06,23,04,57,14.20
2015,06,23,04,58,14.30
2015,06,23,04,59,14.30
2015,06,23,05,00,14.30
2015,06,23,05,01,14.30
2015,06,23,05,02,14.20
2015,06,23,05,03,14.20
2015,06,23,05,04,14.20
2015,06,23,05,05,14.20
2015,06,23,05,06,14.20
2015,06,23,05,07,14.20
2015,06,23,05,08,14.20
2015,06,23,05,09,14.20
2015,06,23,05,10,14.20
2015,06,23,05,11,14.20
2015,06,23,05,12,14.20
2015,06,23,05,13,14.20
2015,06,23,05,14,14.10
2015,06,23,05,15,14.10
2015,06,23,05,16,14.10
2015,06,23,05,17,14.00
2015,06,23,05,18,14.00
2015,06,23,05,19,13.90
2015,06,23,05,20,13.90
2015,06,23,05,21,13.80
2015,06,23,05,22,13.80
2015,06,23,05,23,13.80
2015,06,23,05,24,13.70
2015,06,23,05,25,13.70
2015,06,23,05,26,13.60
2015,06,23,05,27,13.60
2015,06,23,05,28,13.50
2015,06,23,05,29,13.40
2015,06,23,05,30,13.40
2015,06,23,05,31,13.30
2015,06,23,05,32,13.30
2015,06,23,05,33,13.30
2015,06,23,05,34,13.20
2015,06,23,05,35,13.30
2015,06,23,05,36,13.30
2015,06,23,05,37,13.30
2015,06,23,05,38,13.30
2015,06,23,05,39,13.40
2015,06,23,05,40,13.40
2015,06,23,05,41,13.50
2015,06,23,05,42,13.50
2015,06,23,05,43,13.50
2015,06,23,05,44,13.60
2015,06,23,05,45,13.60
2015,06,23,05,46,13.60
2015,06,23,05,47,13.70
2015,06,23,05,48,13.70
2015,06,23,05,49,13.70
2015,06,23,05,50,13.70
2015,06,23,05,51,13.70
2015,06,23,05,52,13.70
2015,06,23,05,53,13.70
2015,06,23,05,54,13.70
2015,06,23,05,55,13.80
2015,06,23,05,56,13.80
2015,06,23,05,57,13.80
2015,06,23,05,58,13.90
2015,06,23,05,59,13.90
2015,06,23,06,00,13.90
2015,06,23,06,01,14.00
2015,06,23,06,02,14.00
2015,06,23,06,03,14.00
2015,06,23,06,04,14.10
2015,06,23,06,05,14.20
2015,06,23,06,06,14.20
2015,06,23,06,07,14.20
2015,06,23,06,08,14.30
2015,06,23,06,09,14.30
2015,06,23,06,10,14.30
2015,06,23,06,11,14.30
2015,06,23,06,12,14.40
2015,06,23,06,13,14.40
2015,06,23,06,14,14.40
2015,06,23,06,15,14.50
2015,06,23,06,16,14.50
2015,06,23,06,17,14.60
2015,06,23,06,18,14.60
2015,06,23,06,19,14.70
2015,06,23,06,20,14.70
2015,06,23,06,21,14.80
2015,06,23,06,22,14.80
2015,06,23,06,23,14.90
2015,06,23,06,24,14.90
2015,06,23,06,25,14.90
2015,06,23,06,26,15.00
2015,06,23,06,27,15.00
2015,06,23,06,28,15.00
2015,06,23,06,29,15.00
2015,06,23,06,30,15.10
2015,06,23,06,31,15.10
2015,06,23,06,32,15.20
2015,06,23,06,33,15.20
2015,06,23,06,34,15.30
2015,06,23,06,35,15.30
2015,06,23,06,36,15.40
2015,06,23,06,37,15.50
2015,06,23,06,38,15.50
2015,06,23,06,39,15.60
2015,06,23,06,40,15.60
2015,06,23,06,41,15.70
2015,06,23,06,42,15.70
2015,06,23,06,43,15.80
2015,06,23,06,44,15.80
2015,06,23,06,45,15.80
2015,06,23,06,46,15.80
2015,06,23,06,47,15.80
2015,06,23,06,48,15.80
2015,06,23,06,49,15.80
2015,06,23,06,50,15.80
2015,06,23,06,51,15.80
2015,06,23,06,52,15.80
2015,06,23,06,53,15.80
2015,06,23,06,54,15.80
2015,06,23,06,55,15.80
2015,06,23,06,56,15.70
2015,06,23,06,57,15.70
2015,06,23,06,58,15.70
2015,06,23,06,59,15.70
2015,06,23,07,00,15.70
2015,06,23,07,01,15.70
2015,06,23,07,02,15.70
2015,06,23,07,03,15.80
2015,06,23,07,04,15.80
2015,06,23,07,05,15.80
2015,06,23,07,06,15.80
2015,06,23,07,07,15.80
2015,06,23,07,08,15.70
2015,06,23,07,09,15.70
2015,06,23,07,10,15.70
2015,06,23,07,11,15.70
2015,06,23,07,12,15.70
2015,06,23,07,13,15.70
2015,06,23,07,14,15.80
2015,06,23,07,15,15.80
2015,06,23,07,16,15.80
2015,06,23,07,17,15.80
2015,06,23,07,18,15.90
2015,06,23,07,19,15.90
2015,06,23,07,20,15.90
2015,06,23,07,21,15.90
2015,06,23,07,22,15.90
2015,06,23,07,23,15.90
2015,06,23,07,24,15.90
2015,06,23,07,25,15.90
2015,06,23,07,26,15.90
2015,06,23,07,27,15.90
2015,06,23,07,28,15.90
2015,06,23,07,29,15.90
2015,06,23,07,30,15.90
2015,06,23,07,31,15.90
2015,06,23,07,32,16.00
2015,06,23,07,33,16.00
2015,06,23,07,34,16.00
2015,06,23,07,35,16.00
2015,06,23,07,36,16.00
2015,06,23,07,37,16.00
2015,06,23,07,38,16.10
2015,06,23,07,39,16.10
2015,06,23,07,40,16.10
2015,06,23,07,41,16.10
2015,06,23,07,42,16.10
2015,06,23,07,43,16.10
2015,06,23,07,44,16.10
2015,06,23,07,45,16.10
2015,06,23,07,46,16.10
2015,06,23,07,47,16.10
2015,06,23,07,48,16.10
2015,06,23,07,49,16.10
2015,06,23,07,50,16.10
2015,06,23,07,51,16.20
2015,06,23,07,52,16.20
2015,06,23,07,53,16.20
2015,06,23,07,54,16.20
2015,06,23,07,55,16.20
2015,06,23,07,56,16.30
2015,06,23,07,57,16.30
2015,06,23,07,58,16.30
2015,06,23,07,59,16.30
2015,06,23,08,00,16.30
2015,06,23,08,01,16.30
2015,06,23,08,02,16.30
2015,06,23,08,03,16.30
2015,06,23,08,04,16.30
2015,06,23,08,05,16.30
2015,06,23,08,06,16.30
2015,06,23,08,07,16.30
2015,06,23,08,08,16.30
2015,06,23,08,09,16.40
2015,06,23,08,10,16.40
2015,06,23,08,11,16.40
2015,06,23,08,12,16.40
2015,06,23,08,13,16.50
2015,06,23,08,14,16.50
2015,06,23,08,15,16.50
2015,06,23,08,16,16.50
2015,06,23,08,17,16.60
2015,06,23,08,18,16.60
2015,06,23,08,19,16.60
2015,06,23,08,20,16.60
2015,06,23,08,21,16.70
2015,06,23,08,22,16.70
2015,06,23,08,23,16.80
2015,06,23,08,24,16.80
2015,06,23,08,25,16.80
2015,06,23,08,26,16.90
2015,06,23,08,27,16.90
2015,06,23,08,28,17.00
2015,06,23,08,29,17.00
2015,06,23,08,30,17.00
2015,06,23,08,31,17.10
2015,06,23,08,32,17.10
2015,06,23,08,33,17.20
2015,06,23,08,34,17.20
2015,06,23,08,35,17.20
2015,06,23,08,36,17.20
2015,06,23,08,37,17.30
2015,06,23,08,38,17.30
2015,06,23,08,39,17.30
2015,06,23,08,40,17.40
2015,06,23,08,41,17.40
2015,06,23,08,42,17.40
2015,06,23,08,43,17.40
2015,06,23,08,44,17.40
2015,06,23,08,45,17.40
2015,06,23,08,46,17.40
2015,06,23,08,47,17.40
2015,06,23,08,48,17.50
2015,06,23,08,49,17.60
2015,06,23,08,50,17.60
2015,06,23,08,51,17.60
2015,06,23,08,52,17.70
2015,06,23,08,53,17.70
2015,06,23,08,54,17.70
2015,06,23,08,55,17.70
2015,06,23,08,56,17.80
2015,06,23,08,57,17.80
2015,06,23,08,58,17.80
2015,06,23,08,59,17.80
2015,06,23,09,00,17.80
2015,06,23,09,01,17.90
2015,06,23,09,02,17.90
2015,06,23,09,03,18.00
2015,06,23,09,04,18.00
2015,06,23,09,05,18.10
2015,06,23,09,06,18.10
2015,06,23,09,07,18.10
2015,06,23,09,08,18.10
2015,06,23,09,09,18.10
2015,06,23,09,10,18.20
2015,06,23,09,11,18.20
2015,06,23,09,12,18.20
2015,06,23,09,13,18.20
2015,06,23,09,14,18.30
2015,06,23,09,15,18.30
2015,06,23,09,16,18.30
2015,06,23,09,17,18.30
2015,06,23,09,18,18.40
2015,06,23,09,19,18.40
2015,06,23,09,20,18.50
2015,06,23,09,21,18.50
2015,06,23,09,22,18.50
2015,06,23,09,23,18.60
2015,06,23,09,24,18.60
2015,06,23,09,25,18.60
2015,06,23,09,26,18.60
2015,06,23,09,27,18.60
2015,06,23,09,28,18.60
2015,06,23,09,29,18.60
2015,06,23,09,30,18.60
2015,06,23,09,31,18.60
2015,06,23,09,32,18.70
2015,06,23,09,33,18.70
2015,06,23,09,34,18.80
2015,06,23,09,35,18.90
2015,06,23,09,36,19.00
2015,06,23,09,37,19.10
2015,06,23,09,38,19.10
2015,06,23,09,39,19.10
2015,06,23,09,40,19.10
2015,06,23,09,41,19.10
2015,06,23,09,42,19.10
2015,06,23,09,43,19.20
2015,06,23,09,44,19.20
2015,06,23,09,45,19.30
2015,06,23,09,46,19.30
2015,06,23,09,47,19.50
2015,06,23,09,48,19.50
2015,06,23,09,49,19.60
2015,06,23,09,50,19.60
2015,06,23,09,51,19.60
2015,06,23,09,52,19.60
2015,06,23,09,53,19.50
2015,06,23,09,54,19.50
2015,06,23,09,55,19.50
2015,06,23,09,56,19.50
2015,06,23,09,57,19.50
2015,06,23,09,58,19.50
2015,06,23,09,59,19.40
2015,06,23,10,00,19.40
2015,06,23,10,01,19.40
2015,06,23,10,02,19.40
2015,06,23,10,03,19.40
2015,06,23,10,04,19.40
2015,06,23,10,05,19.40
2015,06,23,10,06,19.40
2015,06,23,10,07,19.40
2015,06,23,10,08,19.40
2015,06,23,10,09,19.30
2015,06,23,10,10,19.30
2015,06,23,10,11,19.20
2015,06,23,10,12,19.20
2015,06,23,10,13,19.20
2015,06,23,10,14,19.10
2015,06,23,10,15,19.10
2015,06,23,10,16,19.10
2015,06,23,10,17,19.10
2015,06,23,10,18,19.10
2015,06,23,10,19,19.20
2015,06,23,10,20,19.10
2015,06,23,10,21,19.10
2015,06,23,10,22,19.10
2015,06,23,10,23,19.10
2015,06,23,10,24,19.10
2015,06,23,10,25,19.10
2015,06,23,10,26,19.10
2015,06,23,10,27,19.10
2015,06,23,10,28,19.10
2015,06,23,10,29,19.10
2015,06,23,10,30,19.10
2015,06,23,10,31,19.10
2015,06,23,10,32,19.10
2015,06,23,10,33,19.00
2015,06,23,10,34,18.80
2015,06,23,10,35,18.60
2015,06,23,10,36,18.50
2015,06,23,10,37,18.40
2015,06,23,10,38,18.40
2015,06,23,10,39,18.40
2015,06,23,10,40,18.40
2015,06,23,10,41,18.40
2015,06,23,10,42,18.40
2015,06,23,10,43,18.40
2015,06,23,10,44,18.30
2015,06,23,10,45,18.30
2015,06,23,10,46,18.30
2015,06,23,10,47,18.30
2015,06,23,10,48,18.30
2015,06,23,10,49,18.30
2015,06,23,10,50,18.40
2015,06,23,10,51,18.40
2015,06,23,10,52,18.40
2015,06,23,10,53,18.30
2015,06,23,10,54,18.30
2015,06,23,10,55,18.20
2015,06,23,10,56,18.20
2015,06,23,10,57,18.10
2015,06,23,10,58,18.10
2015,06,23,10,59,18.10
2015,06,23,11,00,18.20
2015,06,23,11,01,18.20
2015,06,23,11,02,18.20
2015,06,23,11,03,18.30
2015,06,23,11,04,18.30
2015,06,23,11,05,18.30
2015,06,23,11,06,18.30
2015,06,23,11,07,18.30
2015,06,23,11,08,18.40
2015,06,23,11,09,18.50
2015,06,23,11,10,18.60
2015,06,23,11,11,18.70
2015,06,23,11,12,18.80
2015,06,23,11,13,18.80
2015,06,23,11,14,18.80
2015,06,23,11,15,18.80
2015,06,23,11,16,18.80
2015,06,23,11,17,18.80
2015,06,23,11,18,18.90
2015,06,23,11,19,19.00
2015,06,23,11,20,19.00
2015,06,23,11,21,19.10
2015,06,23,11,22,19.10
2015,06,23,11,23,19.10
2015,06,23,11,24,19.20
2015,06,23,11,25,19.20
2015,06,23,11,26,19.20
2015,06,23,11,27,19.30
2015,06,23,11,28,19.30
2015,06,23,11,29,19.20
2015,06,23,11,30,19.10
2015,06,23,11,31,19.10
2015,06,23,11,32,19.10
2015,06,23,11,33,19.10
2015,06,23,11,34,19.10
2015,06,23,11,35,19.20
2015,06,23,11,36,19.20
2015,06,23,11,37,19.20
2015,06,23,11,38,19.30
2015,06,23,11,39,19.30
2015,06,23,11,40,19.30
2015,06,23,11,41,19.30
2015,06,23,11,42,19.30
2015,06,23,11,43,19.30
2015,06,23,11,44,19.20
2015,06,23,11,45,19.20
2015,06,23,11,46,19.20
2015,06,23,11,47,19.20
2015,06,23,11,48,19.20
2015,06,23,11,49,19.30
2015,06,23,11,50,19.40
2015,06,23,11,51,19.40
2015,06,23,11,52,19.40
2015,06,23,11,53,19.40
2015,06,23,11,54,19.40
2015,06,23,11,55,19.40
2015,06,23,11,56,19.40
2015,06,23,11,57,19.30
2015,06,23,11,58,19.30
2015,06,23,11,59,19.30
2015,06,23,12,00,19.20
2015,06,23,12,01,19.20
2015,06,23,12,02,19.20
2015,06,23,12,03,19.20
2015,06,23,12,04,19.30
2015,06,23,12,05,19.30
2015,06,23,12,06,19.30
2015,06,23,12,07,19.30
2015,06,23,12,08,19.40
2015,06,23,12,09,19.50
2015,06,23,12,10,19.60
2015,06,23,12,11,19.70
2015,06,23,12,12,19.80
2015,06,23,12,13,19.90
2015,06,23,12,14,19.90
2015,06,23,12,15,20.00
2015,06,23,12,16,20.00
2015,06,23,12,17,20.00
2015,06,23,12,18,20.10
2015,06,23,12,19,20.20
2015,06,23,12,20,20.20
2015,06,23,12,21,20.10
2015,06,23,12,22,20.10
2015,06,23,12,23,20.10
2015,06,23,12,24,20.20
2015,06,23,12,25,20.20
2015,06,23,12,26,20.20
2015,06,23,12,27,20.20
2015,06,23,12,28,20.20
2015,06,23,12,29,20.30
2015,06,23,12,30,20.40
2015,06,23,12,31,20.40
2015,06,23,12,32,20.40
2015,06,23,12,33,20.50
2015,06,23,12,34,20.50
2015,06,23,12,35,20.60
2015,06,23,12,36,20.60
2015,06,23,12,37,20.50
2015,06,23,12,38,20.40
2015,06,23,12,39,20.40
2015,06,23,12,40,20.40
2015,06,23,12,41,20.30
2015,06,23,12,42,20.30
2015,06,23,12,43,20.30
2015,06,23,12,44,20.30
2015,06,23,12,45,20.20
2015,06,23,12,46,20.10
2015,06,23,12,47,20.10
2015,06,23,12,48,20.10
2015,06,23,12,49,20.10
2015,06,23,12,50,20.10
2015,06,23,12,51,20.10
2015,06,23,12,52,20.10
2015,06,23,12,53,20.00
2015,06,23,12,54,20.00
2015,06,23,12,55,19.90
2015,06,23,12,56,19.80
2015,06,23,12,57,19.80
2015,06,23,12,58,19.80
2015,06,23,12,59,19.80
2015,06,23,13,00,19.80
2015,06,23,13,01,19.90
2015,06,23,13,02,19.90
2015,06,23,13,03,20.00
2015,06,23,13,04,20.10
2015,06,23,13,05,20.10
2015,06,23,13,06,20.10
2015,06,23,13,07,20.20
2015,06,23,13,08,20.10
2015,06,23,13,09,20.00
2015,06,23,13,10,20.00
2015,06,23,13,11,19.90
2015,06,23,13,12,19.90
2015,06,23,13,13,19.90
2015,06,23,13,14,19.90
2015,06,23,13,15,19.90
2015,06,23,13,16,19.90
2015,06,23,13,17,20.00
2015,06,23,13,18,20.10
2015,06,23,13,19,20.20
2015,06,23,13,20,20.20
2015,06,23,13,21,20.20
2015,06,23,13,22,20.30
2015,06,23,13,23,20.30
2015,06,23,13,24,20.30
2015,06,23,13,25,20.30
2015,06,23,13,26,20.30
2015,06,23,13,27,20.30
2015,06,23,13,28,20.40
2015,06,23,13,29,20.40
2015,06,23,13,30,20.40
2015,06,23,13,31,20.40
2015,06,23,13,32,20.50
2015,06,23,13,33,20.50
2015,06,23,13,34,20.60
2015,06,23,13,35,20.60
2015,06,23,13,36,20.60
2015,06,23,13,37,20.60
2015,06,23,13,38,20.60
2015,06,23,13,39,20.60
2015,06,23,13,40,20.70
2015,06,23,13,41,20.60
2015,06,23,13,42,20.50
2015,06,23,13,43,20.40
2015,06,23,13,44,20.30
2015,06,23,13,45,20.30
2015,06,23,13,46,20.30
2015,06,23,13,47,20.20
2015,06,23,13,48,20.10
2015,06,23,13,49,20.10
2015,06,23,13,50,20.00
2015,06,23,13,51,20.10
2015,06,23,13,52,20.10
2015,06,23,13,53,20.10
2015,06,23,13,54,20.10
2015,06,23,13,55,20.00
2015,06,23,13,56,20.00
2015,06,23,13,57,20.00
2015,06,23,13,58,20.10
2015,06,23,13,59,20.30
2015,06,23,14,00,20.40
2015,06,23,14,01,20.40
2015,06,23,14,02,20.50
2015,06,23,14,03,20.50
2015,06,23,14,04,20.50
2015,06,23,14,05,20.60
2015,06,23,14,06,20.60
2015,06,23,14,07,20.60
2015,06,23,14,08,20.70
2015,06,23,14,09,20.80
2015,06,23,14,10,20.90
2015,06,23,14,11,21.00
2015,06,23,14,12,21.10
2015,06,23,14,13,21.10
2015,06,23,14,14,21.10
2015,06,23,14,15,21.20
2015,06,23,14,16,21.20
2015,06,23,14,17,21.20
2015,06,23,14,18,21.30
2015,06,23,14,19,21.30
2015,06,23,14,20,21.30
2015,06,23,14,21,21.20
2015,06,23,14,22,21.30
2015,06,23,14,23,21.30
2015,06,23,14,24,21.30
2015,06,23,14,25,21.20
2015,06,23,14,26,21.10
2015,06,23,14,27,21.00
2015,06,23,14,28,20.90
2015,06,23,14,29,20.70
2015,06,23,14,30,20.70
2015,06,23,14,31,20.60
2015,06,23,14,32,20.60
2015,06,23,14,33,20.60
2015,06,23,14,34,20.60
2015,06,23,14,35,20.70
2015,06,23,14,36,20.70
2015,06,23,14,37,20.70
2015,06,23,14,38,20.70
2015,06,23,14,39,20.70
2015,06,23,14,40,20.60
2015,06,23,14,41,20.60
2015,06,23,14,42,20.60
2015,06,23,14,43,20.70
2015,06,23,14,44,20.80
2015,06,23,14,45,20.90
2015,06,23,14,46,21.00
2015,06,23,14,47,21.10
2015,06,23,14,48,21.10
2015,06,23,14,49,21.10
2015,06,23,14,50,21.10
2015,06,23,14,51,21.10
2015,06,23,14,52,21.10
2015,06,23,14,53,21.10
2015,06,23,14,54,21.10
2015,06,23,14,55,21.20
2015,06,23,14,56,21.20
2015,06,23,14,57,21.30
2015,06,23,14,58,21.40
2015,06,23,14,59,21.50
2015,06,23,15,00,21.60
2015,06,23,15,01,21.70
2015,06,23,15,02,21.70
2015,06,23,15,03,21.70
2015,06,23,15,04,21.80
2015,06,23,15,05,21.80
2015,06,23,15,06,21.90
2015,06,23,15,07,21.90
2015,06,23,15,08,21.90
2015,06,23,15,09,21.80
2015,06,23,15,10,21.90
2015,06,23,15,11,21.90
2015,06,23,15,12,21.90
2015,06,23,15,13,21.90
2015,06,23,15,14,21.90
2015,06,23,15,15,21.90
2015,06,23,15,16,21.90
2015,06,23,15,17,21.80
2015,06,23,15,18,21.80
2015,06,23,15,19,21.90
2015,06,23,15,20,21.80
2015,06,23,15,21,21.80
2015,06,23,15,22,21.80
2015,06,23,15,23,21.80
2015,06,23,15,24,21.80
2015,06,23,15,25,21.80
2015,06,23,15,26,21.80
2015,06,23,15,27,21.80
2015,06,23,15,28,21.80
2015,06,23,15,29,21.90
2015,06,23,15,30,21.90
2015,06,23,15,31,21.80
2015,06,23,15,32,21.80
2015,06,23,15,33,21.80
2015,06,23,15,34,21.90
2015,06,23,15,35,21.90
2015,06,23,15,36,21.90
2015,06,23,15,37,22.00
2015,06,23,15,38,22.00
2015,06,23,15,39,22.10
2015,06,23,15,40,22.10
2015,06,23,15,41,22.20
2015,06,23,15,42,22.20
2015,06,23,15,43,22.30
2015,06,23,15,44,22.30
2015,06,23,15,45,22.30
2015,06,23,15,46,22.30
2015,06,23,15,47,22.30
2015,06,23,15,48,22.30
2015,06,23,15,49,22.20
2015,06,23,15,50,22.20
2015,06,23,15,51,22.20
2015,06,23,15,52,22.30
2015,06,23,15,53,22.30
2015,06,23,15,54,22.40
2015,06,23,15,55,22.40
2015,06,23,15,56,22.50
2015,06,23,15,57,22.50
2015,06,23,15,58,22.50
2015,06,23,15,59,22.50
2015,06,23,16,00,22.50
2015,06,23,16,01,22.50
2015,06,23,16,02,22.40
2015,06,23,16,03,22.50
2015,06,23,16,04,22.50
2015,06,23,16,05,22.60
2015,06,23,16,06,22.60
2015,06,23,16,07,22.60
2015,06,23,16,08,22.70
2015,06,23,16,09,22.70
2015,06,23,16,10,22.80
2015,06,23,16,11,22.80
2015,06,23,16,12,22.80
2015,06,23,16,13,22.80
2015,06,23,16,14,22.80
2015,06,23,16,15,22.80
2015,06,23,16,16,22.70
2015,06,23,16,17,22.70
2015,06,23,16,18,22.60
2015,06,23,16,19,22.70
2015,06,23,16,20,22.70
2015,06,23,16,21,22.70
2015,06,23,16,22,22.70
2015,06,23,16,23,22.80
2015,06,23,16,24,22.90
2015,06,23,16,25,23.00
2015,06,23,16,26,23.10
2015,06,23,16,27,23.10
2015,06,23,16,28,23.10
2015,06,23,16,29,23.10
2015,06,23,16,30,23.10
2015,06,23,16,31,23.20
2015,06,23,16,32,23.20
2015,06,23,16,33,23.30
2015,06,23,16,34,23.30
2015,06,23,16,35,23.30
2015,06,23,16,36,23.20
2015,06,23,16,37,23.30
2015,06,23,16,38,23.30
2015,06,23,16,39,23.30
2015,06,23,16,40,23.30
2015,06,23,16,41,23.30
2015,06,23,16,42,23.30
2015,06,23,16,43,23.40
2015,06,23,16,44,23.40
2015,06,23,16,45,23.50
2015,06,23,16,46,23.60
2015,06,23,16,47,23.60
2015,06,23,16,48,23.60
2015,06,23,16,49,23.50
2015,06,23,16,50,23.40
2015,06,23,16,51,23.30
2015,06,23,16,52,23.20
2015,06,23,16,53,23.10
2015,06,23,16,54,23.00
2015,06,23,16,55,22.90
2015,06,23,16,56,22.80
2015,06,23,16,57,22.80
2015,06,23,16,58,22.90
2015,06,23,16,59,22.90
2015,06,23,17,00,23.00
2015,06,23,17,01,23.00
2015,06,23,17,02,23.00
2015,06,23,17,03,23.10
2015,06,23,17,04,23.10
2015,06,23,17,05,23.20
2015,06,23,17,06,23.20
2015,06,23,17,07,23.30
2015,06,23,17,08,23.40
2015,06,23,17,09,23.40
2015,06,23,17,10,23.50
2015,06,23,17,11,23.50
2015,06,23,17,12,23.60
2015,06,23,17,13,23.60
2015,06,23,17,14,23.60
2015,06,23,17,15,23.60
2015,06,23,17,16,23.60
2015,06,23,17,17,23.60
2015,06,23,17,18,23.70
2015,06,23,17,19,23.70